| time (UTC) | temp C | wind direction | speed KPH | gust KPH | rain 1hr cm | rain 24hr cm | rain mn cm | humidity % | barometer mb |
| 20260903080055 | 12 | 168 | 3.2 | 8.0 | 0.03 | 1.32 | 0.03 | 89 | 1010.3 |
| 20260903074555 | 12 | 165 | 1.6 | 9.7 | 0.00 | 1.32 | 0.00 | 88 | 1010.3 |
| 20260903073051 | 12 | 134 | 1.6 | 11.3 | 0.00 | 1.32 | 0.00 | 88 | 1010.3 |
| 20260903071603 | 12 | 152 | 3.2 | 16.1 | 0.00 | 1.32 | 0.00 | 88 | 1010.3 |
| 20260903070053 | 12 | 184 | 6.4 | 17.7 | 0.00 | 1.32 | 0.00 | 88 | 1010.3 |
| 20260903064552 | 12 | 207 | 8.0 | 20.9 | 0.00 | 1.32 | 1.32 | 89 | 1010.3 |
| 20260903063105 | 12 | 0 | 0.0 | 0.0 | 0.00 | 1.32 | 1.32 | 90 | 1010.3 |
| 20260903061558 | 12 | 0 | 0.0 | 0.0 | 0.00 | 1.32 | 1.32 | 90 | 1010.1 |
| 20260903060059 | 12 | 0 | 0.0 | 0.0 | 0.00 | 1.32 | 1.32 | 90 | 1010.0 |
| 20260903054553 | 12 | 0 | 0.0 | 6.4 | 0.00 | 1.32 | 1.32 | 90 | 1010.2 |
| 20260903053110 | 13 | 0 | 0.0 | 3.2 | 0.00 | 1.32 | 1.32 | 90 | 1010.3 |
| 20260903051600 | 13 | 0 | 0.0 | 4.8 | 0.00 | 1.32 | 1.32 | 89 | 1010.2 |
| 20260903044602 | 13 | 155 | 1.6 | 6.4 | 0.00 | 1.32 | 1.32 | 88 | 1009.9 |
| 20260903043108 | 13 | 161 | 1.6 | 8.0 | 0.00 | 1.32 | 1.32 | 88 | 1009.9 |
| 20260903041555 | 13 | 152 | 0.0 | 8.0 | 0.00 | 1.32 | 1.32 | 89 | 1009.7 |
| 20260903040053 | 13 | 148 | 3.2 | 9.7 | 0.00 | 1.32 | 1.32 | 90 | 1009.6 |
| 20260903034557 | 13 | 171 | 3.2 | 9.7 | 0.00 | 1.32 | 1.32 | 90 | 1009.4 |
| 20260903033055 | 13 | 163 | 3.2 | 9.7 | 0.00 | 1.32 | 1.32 | 90 | 1009.4 |
| 20260903031606 | 13 | 158 | 3.2 | 8.0 | 0.00 | 1.32 | 1.32 | 90 | 1009.3 |
| 20260903030049 | 13 | 0 | 1.6 | 4.8 | 0.00 | 1.32 | 1.32 | 90 | 1008.9 |
| 20260903024548 | 13 | 168 | 1.6 | 6.4 | 0.00 | 1.32 | 1.32 | 91 | 1008.8 |
| 20260903023054 | 14 | 149 | 1.6 | 6.4 | 0.00 | 1.32 | 1.32 | 91 | 1008.7 |
| 20260903021555 | 14 | 163 | 1.6 | 9.7 | 0.03 | 1.32 | 1.32 | 91 | 1008.4 |
| 20260903020052 | 14 | 157 | 0.0 | 6.4 | 0.03 | 1.32 | 1.32 | 91 | 1008.4 |
| 20260903014603 | 14 | 151 | 3.2 | 6.4 | 0.03 | 1.32 | 1.32 | 91 | 1008.3 |
| 20260903013052 | 14 | 0 | 0.0 | 3.2 | 0.05 | 1.32 | 1.32 | 91 | 1008.2 |
| 20260903011607 | 14 | 0 | 0.0 | 11.3 | 0.03 | 1.30 | 1.30 | 91 | 1008.2 |
| 20260903010059 | 14 | 181 | 3.2 | 9.7 | 0.10 | 1.30 | 1.30 | 92 | 1007.9 |
| 20260903004556 | 14 | 173 | 3.2 | 11.3 | 0.43 | 1.30 | 1.30 | 92 | 1007.7 |
| 20260903003054 | 14 | 163 | 1.6 | 6.4 | 0.48 | 1.27 | 1.27 | 92 | 1007.8 |
| 20260903001552 | 14 | 0 | 0.0 | 11.3 | 0.51 | 1.27 | 1.27 | 91 | 1007.5 |
| 20260903000046 | 15 | 214 | 0.0 | 6.4 | 0.41 | 1.17 | 1.17 | 90 | 1007.8 |
| 20260902234558 | 15 | 248 | 1.6 | 17.7 | 0.08 | 0.84 | 0.84 | 89 | 1007.7 |
| 20260902233057 | 15 | 227 | 4.8 | 17.7 | 0.03 | 0.79 | 0.79 | 87 | 1007.5 |
| 20260902231554 | 15 | 153 | 6.4 | 19.3 | 0.00 | 0.76 | 0.76 | 85 | 1007.4 |
| 20260902230057 | 15 | 187 | 4.8 | 9.7 | 0.00 | 0.76 | 0.76 | 88 | 1007.4 |
| 20260902224554 | 15 | 182 | 0.0 | 4.8 | 0.03 | 0.76 | 0.76 | 91 | 1007.2 |
| 20260902223100 | 15 | 0 | 1.6 | 4.8 | 0.03 | 0.76 | 0.76 | 91 | 1007.2 |
| 20260902221549 | 15 | 0 | 0.0 | 0.0 | 0.03 | 0.76 | 0.76 | 91 | 1007.3 |
| 20260902220104 | 15 | 0 | 0.0 | 0.0 | 0.03 | 0.76 | 0.76 | 90 | 1007.1 |
| 20260902214602 | 15 | 0 | 0.0 | 3.2 | 0.03 | 0.74 | 0.74 | 91 | 1007.1 |
| 20260902213049 | 15 | 107 | 1.6 | 6.4 | 0.10 | 0.74 | 0.74 | 90 | 1007.2 |
| 20260902211611 | 15 | 162 | 0.0 | 8.0 | 0.20 | 0.74 | 0.74 | 92 | 1007.1 |
| 20260902210113 | 15 | 0 | 0.0 | 6.4 | 0.30 | 0.74 | 0.74 | 91 | 1007.0 |
| 20260902204558 | 15 | 0 | 0.0 | 0.0 | 0.38 | 0.71 | 0.71 | 91 | 1006.8 |
| 20260902203057 | 15 | 0 | 0.0 | 0.0 | 0.33 | 0.64 | 0.64 | 91 | 1006.7 |
| 20260902201609 | 14 | 0 | 0.0 | 1.6 | 0.25 | 0.53 | 0.53 | 90 | 1006.8 |
| 20260902200057 | 14 | 0 | 0.0 | 3.2 | 0.18 | 0.41 | 0.41 | 90 | 1006.9 |
| 20260902194553 | 15 | 86 | 1.6 | 6.4 | 0.13 | 0.33 | 0.33 | 89 | 1007.0 |
| 20260902193054 | 15 | 84 | 3.2 | 6.4 | 0.13 | 0.30 | 0.30 | 88 | 1007.1 |
| 20260902191602 | 15 | 0 | 0.0 | 0.0 | 0.15 | 0.28 | 0.28 | 90 | 1007.3 |
| 20260902190052 | 15 | 0 | 0.0 | 0.0 | 0.20 | 0.23 | 0.23 | 88 | 1007.4 |
| 20260902184624 | 15 | 0 | 0.0 | 4.8 | 0.20 | 0.20 | 0.20 | 90 | 1007.7 |
| 20260902183057 | 16 | 0 | 0.0 | 8.0 | 0.18 | 0.18 | 0.18 | 84 | 1007.8 |
| 20260902181605 | 16 | 0 | 1.6 | 4.8 | 0.10 | 0.10 | 0.10 | 82 | 1007.9 |
| 20260902180114 | 17 | 0 | 0.0 | 0.0 | 0.03 | 0.03 | 0.03 | 80 | 1007.6 |
| 20260902174555 | 17 | 0 | 0.0 | 1.6 | 0.00 | 0.00 | 0.00 | 78 | 1007.3 |
| 20260902173056 | 17 | 0 | 0.0 | 3.2 | 0.00 | 0.00 | 0.00 | 76 | 1007.0 |
| 20260902171558 | 17 | 132 | 3.2 | 4.8 | 0.00 | 0.00 | 0.00 | 74 | 1007.0 |
| 20260902170054 | 17 | 0 | 0.0 | 0.0 | 0.00 | 0.00 | 0.00 | 73 | 1007.1 |
| 20260902164551 | 17 | 0 | 0.0 | 3.2 | 0.00 | 0.00 | 0.00 | 70 | 1006.8 |
| 20260902163054 | 17 | 0 | 0.0 | 4.8 | 0.00 | 0.00 | 0.00 | 70 | 1006.9 |
| 20260902161556 | 16 | 0 | 0.0 | 6.4 | 0.00 | 0.00 | 0.00 | 70 | 1007.0 |
| 20260902160051 | 16 | 0 | 0.0 | 3.2 | 0.00 | 0.00 | 0.00 | 70 | 1007.1 |
| 20260902154555 | 16 | 171 | 1.6 | 6.4 | 0.00 | 0.00 | 0.00 | 70 | 1007.3 |
| 20260902153052 | 16 | 173 | 1.6 | 8.0 | 0.00 | 0.00 | 0.00 | 70 | 1007.4 |
| 20260902151602 | 16 | 161 | 1.6 | 8.0 | 0.00 | 0.00 | 0.00 | 71 | 1007.6 |
| 20260902150058 | 16 | 143 | 1.6 | 8.0 | 0.00 | 0.00 | 0.00 | 71 | 1007.7 |
| 20260902144607 | 16 | 178 | 0.0 | 4.8 | 0.00 | 0.00 | 0.00 | 72 | 1007.8 |
| 20260902143055 | 15 | 180 | 0.0 | 3.2 | 0.00 | 0.00 | 0.00 | 72 | 1008.0 |
| 20260902141548 | 15 | 98 | 3.2 | 6.4 | 0.00 | 0.00 | 0.00 | 73 | 1008.2 |
| 20260902140055 | 15 | 116 | 0.0 | 4.8 | 0.00 | 0.00 | 0.00 | 72 | 1008.5 |
| 20260902134558 | 15 | 0 | 0.0 | 4.8 | 0.00 | 0.00 | 0.00 | 72 | 1008.7 |
| 20260902133056 | 15 | 123 | 0.0 | 4.8 | 0.00 | 0.00 | 0.00 | 72 | 1009.0 |
| 20260902131556 | 15 | 0 | 1.6 | 4.8 | 0.00 | 0.00 | 0.00 | 72 | 1009.1 |
| 20260902130103 | 15 | 0 | 0.0 | 4.8 | 0.00 | 0.00 | 0.00 | 74 | 1009.3 |
| 20260902124556 | 15 | 0 | 0.0 | 0.0 | 0.00 | 0.00 | 0.00 | 73 | 1009.6 |
| 20260902123057 | 15 | 0 | 0.0 | 0.0 | 0.00 | 0.00 | 0.00 | 72 | 1009.7 |
| 20260902121556 | 15 | 168 | 0.0 | 1.6 | 0.00 | 0.00 | 0.00 | 72 | 1009.9 |
| 20260902120053 | 15 | 0 | 0.0 | 0.0 | 0.00 | 0.00 | 0.00 | 74 | 1010.0 |
| 20260902114555 | 15 | 0 | 0.0 | 0.0 | 0.00 | 0.00 | 0.00 | 74 | 1010.2 |
| 20260902113054 | 15 | 0 | 0.0 | 0.0 | 0.00 | 0.00 | 0.00 | 76 | 1010.3 |
| 20260902111552 | 15 | 0 | 0.0 | 0.0 | 0.00 | 0.00 | 0.00 | 74 | 1010.5 |
| 20260902110055 | 15 | 0 | 0.0 | 0.0 | 0.00 | 0.00 | 0.00 | 75 | 1010.6 |
| 20260902104551 | 16 | 0 | 0.0 | 0.0 | 0.00 | 0.00 | 0.00 | 72 | 1010.7 |
| 20260902103052 | 16 | 0 | 0.0 | 3.2 | 0.00 | 0.00 | 0.00 | 72 | 1010.7 |
| 20260902101549 | 16 | 122 | 0.0 | 0.0 | 0.00 | 0.00 | 0.00 | 72 | 1010.8 |
| 20260902100104 | 16 | 0 | 0.0 | 4.8 | 0.00 | 0.00 | 0.00 | 71 | 1010.9 |
| 20260902094607 | 16 | 207 | 0.0 | 6.4 | 0.00 | 0.00 | 0.00 | 72 | 1011.2 |
| 20260902093050 | 16 | 174 | 0.0 | 4.8 | 0.00 | 0.00 | 0.00 | 72 | 1011.2 |
| 20260902091555 | 16 | 0 | 3.2 | 8.0 | 0.00 | 0.00 | 0.00 | 73 | 1011.4 |
| 20260902090046 | 16 | 0 | 1.6 | 11.3 | 0.00 | 0.00 | 0.00 | 73 | 1011.4 |
| 20260902084553 | 16 | 181 | 0.0 | 8.0 | 0.00 | 0.00 | 0.00 | 74 | 1011.5 |
| 20260902083055 | 16 | 167 | 0.0 | 6.4 | 0.00 | 0.00 | 0.00 | 74 | 1011.6 |
| 20260902081548 | 16 | 0 | 0.0 | 1.6 | 0.00 | 0.00 | 0.00 | 72 | 1011.4 |